Location: Newark
(34.9500°N, 139.9667°E)
Time: 12:39:24
(UTC+00:00)

Transit 2A - Pass Details

Date: 17 December 2019
Orbit: 601 x 958 km, 66.7° (Epoch: 24 January)

Event Time Altitude Azimuth Distance (km) Brightness Sun altitude
Rises 04:56:46 0° 338° (NNW) 2,897 8.7 22.8°
Reaches altitude 10° 04:59:00 10° 342° (NNW) 2,016 7.9 22.6°
Maximum altitude 05:03:28 57° 61° (ENE) 786 6.1 22.0°
Drops below altitude 10° 05:08:17 10° 141° (SE) 2,181 8.6 21.4°
Sets 05:10:47 0° 145° (SE) 3,157 9.4 21.1°
